CW5586 Weather Reports


Display with metric or nautical units.
time (UTC)temp
F
wind
direction
speed
MPH
gust
MPH
rain 1hr
in
rain 24hr
in
rain mn
in
humidity
%
barometer
mb
20260906184104 58 201 7.0 6.0 0.00 0.31 0.01 81 1020.3
20260906180115 58 244 1.0 10.0 0.00 0.31 0.01 78 1020.4
20260906174604 58 257 8.0 8.0 0.00 0.31 0.01 77 1020.2
20260906174103 58 247 2.0 10.0 0.00 0.31 0.01 77 1020.0
20260906173603 58 177 5.0 10.0 0.00 0.31 0.01 77 1020.0
20260906171604 58 213 6.0 13.0 0.00 0.43 0.01 76 1020.1
20260906171103 58 236 2.0 13.0 0.00 0.43 0.01 76 1020.1
20260906170603 58 224 1.0 9.0 0.00 0.43 0.01 76 1020.1
20260906170115 58 283 2.0 12.0 0.00 0.43 0.01 75 1020.1
20260906164603 58 241 2.0 16.0 0.00 0.43 0.01 75 1020.2
20260906163603 58 267 13.0 16.0 0.00 0.43 0.01 75 1020.3
20260906163104 58 173 2.0 16.0 0.00 0.43 0.01 74 1020.3
20260906153104 59 267 9.0 16.0 0.00 0.43 0.01 73 1020.1
20260906151603 60 240 3.0 8.0 0.00 0.43 0.01 72 1020.3
20260906151103 60 242 3.0 10.0 0.00 0.43 0.01 71 1020.1
20260906150116 60 262 7.0 20.0 0.00 0.43 0.01 69 1020.2
20260906144604 60 304 1.0 20.0 0.00 0.43 0.01 68 1020.3
20260906143103 62 289 8.0 15.0 0.00 0.43 0.01 68 1020.0
20260906141603 61 181 5.0 12.0 0.00 0.45 0.01 71 1020.0
20260906140115 61 214 10.0 18.0 0.00 0.45 0.01 70 1020.1
20260906134604 62 241 7.0 18.0 0.00 0.45 0.01 68 1019.9
20260906134104 62 340 6.0 18.0 0.00 0.45 0.01 68 1019.9
20260906131604 63 213 5.0 13.0 0.00 0.46 0.01 68 1019.6
20260906131104 63 285 3.0 13.0 0.00 0.46 0.01 69 1019.6
20260906124603 62 273 5.0 12.0 0.00 0.46 0.01 70 1019.5
20260906124104 61 292 6.0 15.0 0.00 0.46 0.01 70 1019.4
20260906123605 62 290 1.0 15.0 0.00 0.46 0.01 69 1019.4
20260906123103 62 269 7.0 15.0 0.00 0.46 0.01 69 1019.4
20260906121604 63 212 7.0 14.0 0.00 0.48 0.01 69 1019.3
20260906120604 63 213 8.0 16.0 0.00 0.48 0.01 68 1019.2
20260906114603 63 261 9.0 18.0 0.00 0.48 0.01 70 1019.0
20260906114104 63 331 5.0 18.0 0.00 0.48 0.01 69 1018.8
20260906113604 63 269 5.0 17.0 0.00 0.48 0.01 68 1018.8
20260906110604 64 220 6.0 15.0 0.00 0.48 0.01 66 1018.3
20260906104603 64 163 6.0 9.0 0.00 0.48 0.01 65 1017.9
20260906103104 64 197 5.0 14.0 0.00 0.48 0.01 66 1017.8
20260906101603 63 172 2.0 12.0 0.00 0.48 0.01 70 1017.8
20260906094604 63 198 5.0 12.0 0.00 0.48 0.01 72 1017.5
20260906091604 63 234 6.0 10.0 0.00 0.48 0.01 73 1017.3
20260906091104 63 242 5.0 10.0 0.00 0.48 0.01 75 1017.2
20260906090604 63 273 3.0 9.0 0.00 0.48 0.01 74 1017.3
20260906090115 62 281 2.0 9.0 0.00 0.48 0.01 76 1017.2
20260906084104 62 296 1.0 8.0 0.00 0.48 0.01 79 1017.1
20260906083104 61 277 9.0 12.0 0.00 0.48 0.01 81 1017.0
20260906081104 60 281 2.0 5.0 0.00 0.48 0.01 86 1016.9
20260906080116 60 263 0.0 8.0 0.00 0.48 0.01 88 1016.8
20260906074604 59 252 2.0 8.0 0.00 0.48 0.01 91 1016.5
20260906074103 59 227 3.0 5.0 0.00 0.48 0.01 92 1016.3
20260906073104 58 191 1.0 3.0 0.00 0.48 0.01 94 1016.3
20260906071604 57 202 2.0 3.0 0.00 0.48 0.01 96 1016.3
20260906071104 57 132 1.0 3.0 0.00 0.48 0.01 96 1016.3
20260906070116 56 0 0.0 3.0 0.00 0.49 0.01 96 1016.2
20260906064604 56 199 1.0 2.0 0.00 0.49 0.01 97 1016.0
20260906064104 56 137 1.0 2.0 0.00 0.49 0.01 97 1015.9
20260906063603 55 0 0.0 2.0 0.00 0.49 0.01 97 1015.9
20260906063104 55 172 0.0 2.0 0.00 0.49 0.01 97 1015.8
20260906060116 51 0 0.0 2.0 0.00 0.49 0.01 97 1015.5
20260906054604 49 0 0.0 2.0 0.00 0.49 0.01 97 1015.4
20260906053104 47 0 0.0 2.0 0.00 0.49 0.01 96 1015.2
20260906051605 47 0 0.0 2.0 0.00 0.49 0.01 97 1015.0
20260906051104 46 0 0.0 2.0 0.00 0.49 0.01 96 1015.0
20260906050604 46 0 0.0 2.0 0.00 0.50 0.01 96 1014.9
20260906044104 46 0 0.0 2.0 0.00 0.51 0.01 96 1014.7
20260906041604 46 64 1.0 2.0 0.00 0.51 0.01 96 1014.3
20260906040605 46 0 0.0 2.0 0.00 0.51 0.01 96 1014.1
20260906040116 46 64 0.0 2.0 0.00 0.51 0.01 96 1014.1
20260906034605 46 66 2.0 2.0 0.00 0.51 0.01 96 1013.9
20260906033604 46 49 0.0 1.0 0.00 0.51 0.01 96 1013.7
20260906031604 47 0 0.0 1.0 0.00 0.51 0.01 96 1013.6
20260906031104 47 0 0.0 1.0 0.01 0.51 0.01 96 1013.6
20260906021104 47 0 0.0 0.0 0.00 0.56 0.00 96 1013.1
20260906020605 47 0 0.0 0.0 0.00 0.59 0.00 95 1013.0
20260906014604 47 0 0.0 0.0 0.00 0.60 0.00 95 1012.8
20260906014104 47 0 0.0 0.0 0.00 0.60 0.00 95 1012.8
20260906013604 47 0 0.0 0.0 0.00 0.60 0.00 95 1012.8
20260906013104 47 0 0.0 0.0 0.00 0.60 0.00 95 1012.7
20260906010115 48 0 0.0 0.0 0.00 0.61 0.00 94 1012.3
20260906004104 48 0 0.0 1.0 0.00 0.61 0.00 95 1012.2
20260906003103 49 0 0.0 1.0 0.00 0.61 0.00 94 1012.2
20260906001102 49 0 0.0 2.0 0.00 0.61 0.00 95 1012.0
20260906000115 49 217 1.0 2.0 0.00 0.61 0.00 94 1011.8
20260905233603 50 0 0.0 0.0 0.00 0.61 0.00 94 1011.6
20260905233104 50 0 0.0 2.0 0.00 0.61 0.00 94 1011.5
20260905231603 50 0 0.0 2.0 0.00 0.61 0.00 94 1011.3
20260905231103 50 0 0.0 2.0 0.00 0.61 0.00 93 1011.4
20260905223103 52 0 0.0 2.0 0.31 0.61 0.00 94 1010.9
20260905221604 52 242 1.0 2.0 0.31 0.61 0.00 94 1010.5
20260905214603 53 236 2.0 2.0 0.00 0.53 0.31 94 1010.0
20260905214103 53 234 1.0 2.0 0.00 0.53 0.31 93 1010.0
20260905213603 53 229 1.0 5.0 0.00 0.53 0.31 93 1010.0
20260905211603 53 0 0.0 1.0 0.00 0.53 0.31 93 1009.5
20260905211103 53 318 1.0 2.0 0.00 0.53 0.31 93 1009.5
20260905210603 53 305 1.0 3.0 0.00 0.53 0.31 93 1009.5
20260905210115 53 329 0.0 5.0 0.00 0.53 0.31 93 1009.3
20260905204603 53 327 3.0 9.0 0.00 0.54 0.31 93 1009.0
20260905203103 53 351 3.0 6.0 0.00 0.54 0.31 93 1008.7
20260905201603 53 325 1.0 5.0 0.00 0.54 0.31 93 1008.6
20260905200603 53 323 2.0 3.0 0.00 0.54 0.31 93 1008.3
20260905193603 53 340 1.0 3.0 0.00 0.54 0.31 93 1007.8
20260905193103 53 338 1.0 3.0 0.00 0.54 0.31 93 1007.8
20260905191603 53 33 1.0 2.0 0.00 0.54 0.31 92 1007.6